Temp
62 62 61 60 60 60 61 61 61 60 59 59 59 59 59 59 60 60 60 59 59 58 58 57 58 58 55 58 65 81 71 69 72 75 72 72 70 69 64 65 67 62 64 68 69 69 66
61 60 60 60 60 60 61 61 60 59 59 58 58 58 58 58 59 59 59 58 58 58 57 57 57 57 54 57 79 82 79 75 76 74 75 73 73 74 69 66 64 66 67 66 67 65 66
61 60 60 59 59 59 60 59 59 59 58 58 58 58 58 58 58 58 59 58 57 57 56 56 57 57 58 64 78 77 81 78 77 76 74 78 76 71 68 67 69 67 61 62 61 63 62
60 60 60 59 59 58 59 59 59 58 57 57 57 58 57 57 58 58 58 57 57 56 56 56 56 55 60 80 77 81 79 81 83 83 80 78 78 73 69 68 68 63 58 52 61 64 65
60 60 60 59 59 59 59 58 58 58 57 57 57 57 57 56 56 57 57 56 55 55 56 56 52 54 62 79 77 83 79 78 80 82 79 85 76 67 67 57 53 54 48 51 57 65 62
60 60 59 59 59 59 59 58 58 57 56 56 57 57 57 56 56 55 55 55 57 56 55 60 63 57 69 71 77 78 79 79 74 75 73 72 63 58 56 53 45 49 51 47 54 58 60
60 60 59 59 59 59 58 58 58 57 56 57 57 57 57 56 56 55 54 51 55 56 58 63 65 65 71 75 77 75 78 77 73 70 59 64 57 51 54 57 60 60 54 52 53 62 60
59 59 59 59 59 58 58 57 57 56 56 57 57 57 57 56 56 55 52 58 63 65 58 68 69 70 76 75 69 73 77 67 65 59 61 57 51 60 64 63 60 58 55 53 58 64 59
58 58 58 59 59 58 57 57 56 56 56 56 56 57 57 56 55 53 55 62 70 67 57 67 72 72 72 75 67 67 71 67 63 59 57 53 59 65 63 58 57 54 53 51 53 56 58
57 57 57 58 58 57 57 57 56 56 56 56 56 57 56 55 55 57 59 70 68 66 48 59 66 70 75 73 65 73 74 68 65 58 59 58 64 62 58 57 55 49 57 57 55 50 45
57 57 57 57 57 56 56 55 55 55 55 56 56 56 54 55 56 60 69 69 66 64 30 62 65 77 73 67 68 67 73 69 59 61 59 54 57 57 55 56 58 54 58 55 54 48 45
57 57 57 57 56 56 55 55 54 54 55 55 56 56 54 55 54 63 66 63 63 42 34 58 66 64 62 65 65 68 67 70 67 62 60 58 61 59 56 61 60 60 55 54 51 47 35
56 56 56 56 56 56 55 54 54 54 55 55 56 56 55 66 62 66 63 59 42 34 59 56 58 63 61 59 61 63 59 55 51 48 48 56 56 60 62 56 59 56 47 34 34 30 32
56 56 56 56 56 56 55 54 53 54 54 55 56 54 57 66 65 64 60 51 35 53 55 62 61 60 57 60 58 59 56 50 56 54 49 45 41 55 61 55 51 52 48 34 31 27 35
56 56 55 56 56 55 54 53 53 53 54 55 56 56 60 63 66 62 55 36 43 52 62 60 60 54 54 59 58 56 51 51 53 53 48 45 46 57 58 59 56 52 43 51 38 32 31
56 55 55 55 55 54 50 52 53 54 55 56 58 58 59 64 63 58 47 43 53 61 63 62 52 56 50 55 54 53 51 55 54 57 56 51 44 55 59 60 59 54 56 41 36 29 27
55 55 55 55 54 52 52 52 52 53 55 55 57 55 61 64 61 52 40 46 58 64 64 60 56 55 56 53 55 51 51 55 57 57 56 51 48 48 54 50 48 50 47 46 44 34 28
54 54 54 55 53 52 52 52 52 53 54 57 54 48 61 62 50 45 46 57 59 61 64 62 60 58 56 55 51 49 49 52 57 55 50 51 44 32 46 55 57 53 49 46 31 35 29
54 54 54 54 50 51 52 52 52 52 54 56 52 52 61 59 39 34 53 60 61 59 59 59 57 59 58 53 46 50 51 54 56 53 48 50 40 31 40 48 52 50 51 49 42 33 33
54 54 54 52 49 49 52 52 52 52 54 56 53 44 51 52 50 51 51 54 55 61 60 61 59 60 56 52 53 48 49 54 55 54 50 51 45 39 33 40 45 41 47 47 43 29 33
53 53 52 49 49 49 51 52 52 52 53 58 54 48 52 38 44 51 54 56 54 53 59 61 57 57 54 45 48 46 50 51 54 53 52 48 38 41 44 46 46 45 45 45 44 42 35
53 53 52 49 49 51 52 52 52 52 53 57 54 51 51 48 54 52 49 53 55 56 57 55 53 55 54 46 50 46 50 49 48 51 48 45 35 33 35 44 43 40 44 44 45 47 45
53 52 52 50 50 54 52 52 52 52 54 59 60 56 55 45 48 46 45 55 55 57 56 59 54 49 46 50 51 51 52 52 52 49 40 37 31 30 30 35 34 31 40 45 46 46 46
52 52 53 53 53 54 52 51 51 52 55 61 58 55 48 39 42 48 56 57 56 55 52 55 55 49 55 57 53 52 50 50 50 47 46 34 33 28 25 27 21 43 50 50 44 45 45
52 52 53 53 53 52 52 51 51 51 52 57 55 56 48 35 43 53 54 52 53 52 50 52 54 56 56 50 37 38 34 37 38 46 44 42 29 26 23 24 34 43 48 46 42 39 46
52 52 53 52 52 52 51 51 51 52 52 56 54 55 52 44 44 57 51 53 42 42 44 48 56 56 50 33 32 28 28 35 33 40 43 40 32 30 27 21 20 37 48 52 50 33 46
52 52 52 52 52 52 52 51 51 52 52 57 55 57 55 47 52 54 49 49 50 45 41 45 46 47 47 28 28 30 31 42 33 30 28 27 25 24 24 17 29 43 49 51 33 36 44
51 52 52 53 52 51 51 51 51 51 52 57 56 57 57 49 51 55 55 53 51 47 41 48 45 42 35 31 27 32 30 33 32 38 34 31 27 24 23 19 25 48 49 39 42 42 44
52 52 52 52 52 51 51 51 50 51 51 54 56 58 58 53 53 56 57 56 57 57 50 48 48 45 41 36 35 37 32 33 28 29 43 36 36 32 36 34 45 48 48 47 46 43 43
MSLP
1017.69 1017.79 1018.09 1018.22 1018.22 1017.88 1017.71 1017.41 1017.34 1017.13 1016.99 1016.68 1016.64 1016.53 1016.35 1016.27 1016.25 1016.27 1016.39 1016.60 1016.85 1017.04 1017.07 1017.12 1016.84 1016.72 1016.42 1015.21 1011.88 1008.81 1008.94 1009.77 1010.56 1011.26 1011.17 1011.06 1011.09 1010.80 1010.66 1010.63 1010.60 1010.99 1010.82 1010.66 1010.75 1010.77 1011.05
1017.44 1017.53 1017.80 1017.82 1017.84 1017.36 1017.24 1017.01 1016.92 1016.71 1016.50 1016.28 1016.27 1016.15 1015.99 1015.95 1015.95 1015.97 1016.16 1016.45 1016.73 1016.87 1016.94 1016.89 1016.76 1016.74 1016.29 1013.63 1009.17 1008.71 1008.83 1009.75 1010.01 1010.21 1009.71 1009.95 1009.59 1009.49 1009.61 1009.98 1010.27 1010.48 1010.54 1010.78 1010.77 1011.00 1010.95
1016.98 1017.24 1017.41 1017.37 1017.46 1016.86 1016.81 1016.64 1016.45 1016.22 1016.07 1015.96 1015.81 1015.72 1015.65 1015.58 1015.60 1015.68 1015.97 1016.30 1016.50 1016.69 1016.74 1016.70 1016.64 1016.54 1015.30 1011.20 1008.79 1008.62 1008.94 1008.77 1008.84 1009.15 1009.17 1008.68 1008.38 1008.81 1008.76 1009.28 1009.84 1010.55 1011.18 1011.21 1011.22 1011.09 1011.14
1016.58 1016.95 1016.95 1017.00 1017.09 1016.51 1016.39 1016.14 1016.01 1015.76 1015.74 1015.61 1015.44 1015.31 1015.22 1015.23 1015.26 1015.49 1015.82 1016.10 1016.35 1016.54 1016.53 1016.55 1016.56 1016.32 1013.31 1009.24 1008.75 1008.84 1008.31 1008.04 1007.77 1007.97 1007.82 1007.95 1007.90 1008.28 1008.59 1009.28 1010.11 1010.91 1011.63 1012.15 1011.57 1011.50 1011.34
1015.86 1016.19 1016.41 1016.61 1016.58 1016.17 1016.02 1015.69 1015.62 1015.31 1015.32 1015.20 1015.07 1014.92 1014.84 1014.85 1014.99 1015.32 1015.68 1015.97 1016.20 1016.25 1016.37 1016.45 1016.50 1015.55 1012.03 1009.02 1008.72 1008.16 1008.05 1008.04 1007.90 1007.55 1007.59 1007.71 1008.09 1008.97 1009.54 1010.67 1011.48 1012.10 1012.44 1012.44 1012.09 1011.72 1011.88
1015.32 1015.80 1015.87 1016.04 1016.16 1015.79 1015.67 1015.28 1015.21 1015.00 1014.96 1014.69 1014.68 1014.45 1014.33 1014.45 1014.83 1015.19 1015.52 1015.83 1015.86 1015.89 1016.16 1016.05 1015.29 1014.59 1011.14 1009.37 1008.52 1008.12 1007.83 1008.01 1008.24 1008.30 1008.55 1008.59 1009.62 1010.45 1011.23 1011.73 1012.48 1012.69 1012.73 1012.50 1012.26 1012.24 1012.26
1015.04 1015.43 1015.37 1015.53 1015.49 1015.49 1015.28 1014.91 1014.73 1014.60 1014.52 1014.39 1014.15 1013.91 1014.03 1014.30 1014.70 1014.87 1015.33 1015.64 1015.96 1015.58 1014.83 1013.44 1012.68 1011.68 1009.96 1008.89 1008.40 1008.37 1008.21 1008.33 1008.50 1008.92 1009.83 1010.28 1011.20 1011.72 1011.74 1011.82 1012.04 1012.43 1012.22 1011.97 1012.00 1012.08 1012.54
1014.69 1014.79 1014.89 1015.01 1014.93 1015.15 1014.93 1014.52 1014.32 1014.23 1014.16 1013.94 1013.80 1013.77 1013.81 1014.21 1014.46 1014.69 1014.76 1014.23 1012.90 1012.53 1012.62 1011.60 1011.13 1010.58 1009.41 1008.69 1008.77 1008.64 1008.45 1008.97 1009.30 1010.06 1010.79 1011.53 1011.93 1011.76 1011.82 1011.92 1012.11 1012.28 1012.38 1012.72 1012.45 1012.46 1013.29
1014.08 1014.24 1014.46 1014.45 1014.44 1014.80 1014.58 1013.91 1014.08 1013.79 1013.86 1013.53 1013.61 1013.65 1013.73 1014.17 1014.54 1014.73 1014.25 1012.99 1011.46 1011.93 1012.00 1010.61 1009.90 1009.25 1008.78 1008.70 1008.90 1008.83 1008.89 1009.27 1009.70 1010.57 1011.24 1011.89 1011.96 1011.70 1012.09 1012.48 1012.64 1013.07 1012.98 1013.25 1013.44 1013.52 1014.29
1013.53 1013.58 1013.86 1014.05 1014.06 1014.34 1014.13 1013.58 1013.64 1013.45 1013.51 1013.18 1013.22 1013.45 1013.66 1014.29 1014.94 1013.89 1013.25 1011.44 1011.21 1011.80 1012.22 1010.71 1009.54 1008.70 1008.55 1008.70 1009.08 1008.86 1008.93 1009.50 1010.00 1011.01 1011.61 1012.13 1012.08 1012.19 1012.52 1012.87 1012.99 1013.19 1013.41 1013.67 1014.04 1014.54 1015.34
1012.81 1013.03 1013.27 1013.65 1013.68 1013.89 1013.65 1013.41 1013.23 1013.20 1013.18 1012.93 1013.01 1013.34 1013.71 1014.26 1013.80 1013.17 1011.90 1011.30 1011.29 1011.87 1012.14 1010.80 1009.53 1008.58 1008.65 1009.10 1009.31 1009.19 1008.95 1009.41 1010.37 1011.17 1012.05 1012.95 1012.77 1012.90 1012.94 1012.99 1012.99 1013.35 1013.35 1013.83 1014.41 1015.30 1015.98
1012.30 1012.46 1012.81 1013.18 1013.22 1013.53 1013.25 1013.08 1012.89 1012.93 1012.85 1012.53 1012.92 1013.28 1013.95 1014.32 1013.66 1011.98 1011.39 1011.38 1011.84 1012.73 1011.85 1010.51 1009.53 1009.19 1009.41 1009.46 1009.69 1009.69 1009.75 1010.17 1010.83 1011.77 1012.33 1012.89 1012.87 1012.97 1012.95 1012.88 1013.01 1013.38 1013.94 1014.93 1015.67 1016.68 1017.45
1011.62 1011.88 1012.45 1012.68 1012.78 1013.25 1012.96 1012.69 1012.55 1012.69 1012.41 1012.34 1012.79 1013.11 1013.69 1012.47 1012.19 1011.30 1011.34 1012.00 1013.03 1012.45 1011.31 1010.69 1010.07 1009.88 1009.98 1010.24 1010.35 1010.69 1011.40 1012.09 1012.73 1013.36 1013.81 1013.78 1013.79 1013.37 1013.13 1013.23 1013.33 1013.85 1015.02 1016.69 1018.13 1019.03 1019.03
1011.00 1011.54 1011.98 1012.13 1012.48 1012.85 1012.58 1012.39 1012.21 1012.41 1012.07 1012.33 1012.49 1012.93 1012.57 1011.90 1011.38 1011.28 1012.08 1013.16 1013.23 1011.88 1011.03 1010.30 1010.16 1010.37 1010.60 1010.78 1011.41 1011.88 1012.55 1013.43 1013.54 1013.81 1014.53 1014.75 1014.80 1014.17 1013.77 1013.87 1014.18 1014.65 1015.71 1017.54 1019.31 1020.47 1020.15
1010.65 1011.12 1011.37 1011.81 1012.18 1012.49 1012.17 1012.01 1011.95 1012.06 1011.81 1012.18 1012.46 1012.69 1012.38 1011.49 1011.29 1011.50 1013.12 1013.89 1012.68 1011.49 1010.36 1010.18 1010.43 1010.91 1011.10 1011.21 1011.93 1012.74 1013.68 1014.35 1014.50 1014.48 1014.75 1015.13 1015.21 1014.61 1014.27 1014.09 1014.45 1015.07 1016.24 1017.39 1019.46 1021.34 1021.57
1010.28 1010.74 1010.79 1011.63 1011.97 1012.14 1011.86 1011.72 1011.73 1011.66 1011.66 1011.98 1012.27 1012.61 1012.25 1011.26 1011.34 1012.22 1013.71 1013.43 1012.10 1010.70 1009.93 1009.75 1010.44 1010.82 1011.45 1011.80 1012.44 1013.27 1014.29 1014.80 1014.82 1014.74 1014.56 1015.17 1015.59 1015.23 1014.65 1014.37 1014.47 1014.99 1016.13 1017.79 1019.76 1022.01 1023.00
1010.04 1010.04 1010.66 1011.38 1011.81 1011.80 1011.53 1011.43 1011.48 1011.44 1011.50 1011.84 1012.29 1012.88 1011.88 1011.37 1011.78 1013.38 1014.28 1013.20 1011.49 1010.36 1009.78 1009.93 1010.32 1010.84 1011.36 1012.12 1012.87 1013.98 1015.04 1015.37 1015.36 1015.23 1015.08 1015.54 1016.05 1016.56 1015.79 1015.83 1015.80 1015.89 1016.76 1018.49 1020.34 1022.24 1023.22
1009.47 1009.88 1010.52 1011.11 1011.65 1011.36 1011.26 1011.21 1011.25 1011.21 1011.38 1011.98 1012.38 1013.33 1012.15 1011.91 1013.38 1014.17 1013.93 1012.44 1011.01 1010.39 1009.90 1010.05 1010.28 1010.61 1011.34 1012.49 1013.79 1014.73 1015.54 1015.85 1015.67 1015.72 1016.11 1016.62 1017.46 1017.85 1017.29 1016.43 1016.08 1016.42 1017.50 1018.91 1021.27 1022.93 1023.69
1009.09 1009.62 1010.55 1011.04 1011.42 1011.10 1011.17 1010.99 1010.96 1011.00 1011.16 1011.72 1012.53 1013.01 1012.43 1012.47 1013.91 1014.49 1013.30 1012.13 1011.07 1010.58 1010.38 1010.35 1010.77 1011.06 1011.75 1012.99 1014.48 1015.46 1015.97 1016.36 1016.17 1016.54 1017.01 1017.38 1018.43 1019.25 1018.77 1018.04 1017.13 1017.26 1017.86 1019.03 1020.89 1022.41 1023.59
1008.94 1009.58 1010.49 1010.97 1010.97 1011.00 1010.98 1010.75 1010.65 1010.78 1010.89 1011.45 1012.56 1013.43 1013.65 1013.66 1013.89 1013.80 1013.38 1012.23 1011.53 1010.87 1010.76 1010.74 1011.18 1011.49 1012.43 1013.78 1014.53 1015.83 1016.45 1016.74 1016.81 1017.20 1017.64 1018.10 1019.31 1019.84 1019.71 1019.06 1018.67 1018.39 1018.56 1019.36 1020.49 1022.20 1022.87
1008.79 1009.81 1010.50 1010.68 1010.65 1010.82 1010.78 1010.51 1010.43 1010.55 1010.60 1011.07 1012.01 1012.94 1012.69 1013.87 1014.16 1013.72 1013.28 1012.27 1011.89 1011.49 1011.28 1011.30 1011.85 1012.42 1013.24 1014.71 1015.53 1016.42 1016.88 1017.30 1017.56 1017.88 1018.41 1019.23 1020.72 1021.18 1020.94 1020.43 1019.69 1019.25 1019.19 1019.59 1020.31 1020.93 1021.75
1009.02 1009.76 1010.27 1010.47 1010.40 1010.69 1010.60 1010.26 1010.29 1010.32 1010.41 1011.06 1011.66 1012.24 1012.65 1013.02 1013.41 1013.71 1013.18 1012.69 1012.23 1012.04 1011.98 1012.27 1012.80 1013.42 1013.91 1015.23 1015.88 1016.61 1017.03 1017.68 1018.01 1018.69 1019.63 1020.74 1022.38 1022.78 1022.52 1021.73 1021.12 1020.19 1019.55 1019.39 1019.70 1020.05 1020.66
1009.11 1009.81 1010.02 1010.30 1010.39 1010.50 1010.48 1010.15 1010.13 1010.16 1010.26 1010.88 1010.83 1011.19 1011.72 1013.37 1013.83 1013.83 1013.20 1012.55 1012.47 1012.47 1012.78 1012.93 1013.75 1014.52 1015.33 1016.15 1016.40 1016.92 1017.37 1017.77 1018.37 1019.44 1021.17 1022.50 1023.89 1024.74 1024.58 1023.57 1022.33 1021.23 1019.53 1019.17 1019.31 1019.81 1020.19
1009.36 1009.60 1009.86 1010.20 1010.28 1010.47 1010.48 1010.19 1010.05 1009.98 1009.85 1010.40 1010.94 1011.30 1012.15 1013.99 1013.95 1013.51 1012.97 1012.55 1012.98 1013.18 1013.51 1014.32 1014.30 1014.86 1016.32 1016.83 1017.28 1017.87 1018.69 1019.19 1019.64 1020.77 1021.46 1023.52 1024.93 1026.00 1026.34 1025.22 1024.02 1020.61 1019.34 1018.85 1019.68 1020.45 1020.66
1009.34 1009.45 1009.87 1010.15 1010.34 1010.52 1010.39 1010.31 1010.16 1009.87 1009.95 1010.39 1010.63 1011.06 1012.24 1013.80 1013.78 1013.13 1013.10 1013.70 1013.81 1014.18 1014.76 1015.05 1015.25 1015.43 1016.34 1017.64 1019.60 1020.84 1021.47 1021.35 1021.80 1022.22 1022.69 1023.36 1025.18 1027.15 1027.38 1026.40 1023.95 1020.99 1019.48 1019.10 1019.42 1020.98 1021.38
1009.14 1009.48 1009.95 1010.27 1010.49 1010.42 1010.33 1010.32 1010.01 1009.78 1009.73 1009.95 1010.57 1010.50 1011.41 1012.88 1013.41 1012.97 1013.42 1013.83 1014.67 1015.36 1016.24 1016.17 1016.16 1016.45 1017.32 1019.98 1021.62 1022.85 1023.14 1022.78 1023.05 1023.25 1023.61 1024.38 1025.17 1026.36 1027.71 1027.09 1024.49 1021.04 1019.38 1018.88 1019.24 1020.87 1021.28
1009.25 1009.75 1010.10 1010.36 1010.51 1010.50 1010.44 1010.30 1009.96 1009.66 1009.46 1009.46 1010.44 1010.40 1011.10 1013.02 1012.82 1012.68 1013.15 1013.62 1014.40 1015.45 1016.55 1016.92 1016.93 1017.61 1018.65 1021.54 1023.40 1024.31 1023.73 1022.87 1023.30 1023.63 1024.15 1025.13 1026.15 1026.89 1027.29 1026.32 1023.28 1020.46 1019.36 1019.28 1020.34 1020.56 1020.82
1009.43 1009.97 1010.22 1010.43 1010.80 1010.72 1010.68 1010.47 1010.16 1009.90 1009.67 1009.60 1010.71 1010.43 1010.80 1012.49 1013.13 1012.77 1012.49 1012.96 1013.91 1014.68 1015.92 1016.74 1017.61 1018.54 1020.32 1022.20 1023.60 1024.20 1024.00 1023.18 1023.24 1023.10 1023.29 1024.08 1025.24 1026.04 1026.34 1025.31 1022.06 1019.42 1019.35 1019.61 1019.54 1019.88 1020.44
1009.76 1010.25 1010.57 1010.84 1011.05 1011.02 1010.92 1010.71 1010.58 1010.30 1009.94 1009.73 1010.86 1010.64 1010.66 1012.00 1013.26 1012.87 1012.67 1012.68 1012.59 1012.88 1014.26 1016.04 1016.85 1017.97 1019.11 1021.60 1023.28 1023.71 1023.92 1023.67 1023.50 1023.10 1022.23 1022.65 1021.85 1022.41 1022.76 1021.44 1019.45 1018.64 1018.17 1018.26 1018.79 1019.54 1020.38
Wind_Speed
9 9 9 10 12 11 13 14 15 13 15 12 14 15 14 14 13 12 11 10 9 7 6 6 7 9 4 2 10 9 6 9 9 7 6 6 6 7 6 4 5 7 4 5 8 7 4
9 9 9 10 12 10 12 14 15 15 14 13 14 14 13 13 12 10 10 8 7 6 5 5 6 7 2 4 6 5 8 7 5 6 7 8 9 8 7 10 6 5 8 6 6 4 3
11 10 10 10 12 9 12 12 14 14 12 12 12 12 12 12 9 8 8 7 6 4 3 4 4 3 2 14 4 7 6 6 7 7 4 6 6 3 1 7 7 9 7 4 1 3 2
11 10 10 10 11 9 11 11 14 12 12 12 12 11 10 8 8 7 7 6 5 3 3 4 3 2 8 6 5 9 3 6 4 9 2 2 1 2 4 2 5 6 6 3 4 5 2
13 12 10 10 10 9 11 10 13 11 12 12 11 10 8 7 7 8 6 5 5 4 4 3 3 2 9 11 2 8 2 3 6 4 5 3 5 3 7 5 6 7 3 3 3 7 3
15 13 10 9 9 9 11 10 11 11 12 10 9 6 5 5 6 7 6 5 4 1 2 4 5 2 6 5 3 2 3 2 1 5 7 8 7 5 5 6 3 5 4 5 7 6 4
14 13 10 9 8 10 10 9 9 10 9 9 6 2 5 7 9 8 5 3 1 2 3 8 5 4 4 3 2 2 4 4 3 6 2 7 7 3 3 4 4 3 3 7 3 5 5
14 12 10 9 6 9 10 7 8 8 8 6 4 1 6 9 9 9 2 2 3 3 5 10 11 8 8 2 3 4 2 2 2 2 3 7 2 3 4 5 6 3 7 6 5 7 6
15 12 10 9 6 10 9 5 7 7 8 3 2 3 9 9 10 5 2 7 3 2 2 3 5 4 2 2 2 2 3 2 3 2 3 7 5 2 5 7 7 5 7 3 2 2 8
15 13 11 9 7 8 7 4 7 7 7 2 0 4 10 12 3 3 4 5 4 5 5 4 3 2 4 3 3 1 3 2 5 8 7 5 6 5 5 4 1 3 2 4 3 4 6
15 14 11 9 8 7 5 3 6 7 6 0 0 5 12 7 1 3 4 6 3 5 5 4 1 2 2 2 4 2 1 4 0 3 7 4 4 6 5 0 2 4 1 2 1 3 3
16 14 12 10 8 7 4 2 4 6 5 2 2 7 11 5 1 6 5 4 5 10 2 3 4 4 2 1 1 3 2 7 2 6 7 4 2 3 1 3 1 1 1 7 5 3 4
16 13 12 10 7 7 3 2 3 6 2 1 4 10 9 1 3 4 2 6 7 6 2 3 4 4 4 2 2 5 5 7 4 6 4 5 4 5 4 4 6 8 6 4 6 6 5
16 14 13 10 8 7 3 1 3 5 2 1 2 11 10 4 3 2 5 7 2 4 5 3 5 4 4 3 6 4 4 4 6 5 4 4 5 4 6 2 1 3 5 6 5 2 4
16 15 13 10 8 6 4 2 2 3 4 4 7 2 2 3 2 4 7 4 7 6 4 6 5 5 2 2 7 7 5 2 2 1 6 5 0 2 0 2 2 3 4 4 7 4 4
17 15 13 10 8 6 4 3 2 1 5 6 3 3 3 1 1 7 7 5 3 2 2 6 6 5 4 5 4 5 2 3 2 6 2 2 5 2 3 5 6 6 2 5 5 2 1
16 14 13 10 7 7 5 4 2 2 6 7 4 4 5 3 5 7 3 6 3 3 5 4 3 5 6 7 5 4 3 3 6 4 6 2 5 5 4 3 1 6 3 6 5 4 5
15 14 11 10 8 7 5 5 3 4 6 4 4 3 4 4 4 1 2 4 2 3 4 5 3 3 5 4 6 4 4 4 7 2 3 2 6 3 1 3 1 1 3 5 6 2 2
15 13 11 10 8 6 4 5 4 3 6 5 5 3 3 7 4 3 5 4 2 2 2 2 3 3 3 4 7 3 4 2 7 5 2 2 2 4 7 7 7 4 2 5 6 4 3
13 12 11 9 8 6 2 5 4 3 5 4 4 3 4 4 1 6 2 1 2 4 3 5 4 6 6 5 6 5 3 3 4 3 2 2 4 5 7 5 3 0 2 3 6 4 4
14 12 11 9 8 5 2 5 5 3 5 4 2 5 7 4 4 3 3 3 2 2 2 4 4 3 5 4 4 5 3 2 4 3 3 4 4 2 2 3 1 2 2 1 4 5 6
13 12 10 9 8 4 3 5 6 4 8 4 3 4 3 4 6 4 4 6 9 3 3 1 2 4 6 5 6 8 7 3 4 1 3 4 2 1 1 5 6 3 5 5 4 5 4
12 12 10 9 7 5 4 4 6 4 4 3 1 1 6 4 5 4 4 6 8 8 2 3 12 8 11 1 5 5 4 6 6 6 3 4 5 4 4 5 6 6 5 3 1 4 3
12 12 10 8 7 6 4 5 5 6 2 4 4 3 5 3 4 7 3 4 6 1 8 3 5 8 4 6 3 8 12 12 12 9 4 6 5 3 3 4 2 6 5 4 10 3 10
12 12 9 7 7 5 6 5 5 5 3 3 1 4 4 2 2 0 6 9 8 7 7 5 5 2 8 6 6 6 7 8 5 7 6 4 5 4 4 3 5 6 4 6 5 3 4
12 10 9 8 6 6 7 6 7 8 6 4 1 2 5 7 5 2 6 7 6 4 6 4 5 3 8 5 5 5 5 5 2 1 5 6 7 6 3 4 7 7 2 4 5 5 9
11 10 9 8 7 7 7 8 10 11 11 4 2 2 5 5 3 2 5 7 7 4 4 1 0 5 5 3 4 4 4 5 5 6 4 3 4 5 3 2 10 8 7 2 7 10 9
12 10 9 9 7 7 8 9 11 12 11 3 1 0 4 4 3 4 3 6 5 3 7 5 6 5 4 5 4 4 3 6 3 4 7 8 7 4 3 2 9 7 5 8 8 3 7
12 10 9 8 7 7 8 10 11 11 12 2 3 2 2 6 3 1 2 2 1 7 8 1 7 4 6 6 2 3 1 1 3 4 3 3 10 8 11 10 6 7 6 2 6 6 6
Wind_Direction
220 237 250 267 272 276 285 290 292 292 287 284 278 271 266 260 258 259 259 264 273 284 305 314 311 327 326 248 251 256 194 98 121 163 210 191 193 192 213 176 132 141 148 73 96 79 103
218 223 246 262 268 274 285 291 293 291 287 283 275 269 262 256 252 250 253 260 266 283 304 301 310 328 248 262 249 327 186 142 196 193 218 182 210 204 238 174 164 178 121 138 117 128 105
213 226 247 259 265 270 284 291 293 290 288 280 276 268 257 249 237 237 244 250 263 275 282 289 307 287 263 240 238 326 212 209 181 191 231 205 201 241 5 82 128 139 92 45 154 208 160
214 230 246 257 268 269 281 290 291 291 285 280 274 263 243 229 229 228 232 242 254 257 264 267 265 244 251 251 278 286 339 297 328 190 215 253 169 225 80 87 44 93 58 121 256 158 238
208 219 237 254 264 272 280 287 288 291 285 280 268 258 234 212 210 214 219 226 235 234 221 233 173 213 269 313 296 265 225 353 315 326 328 6 49 69 34 66 25 15 192 216 313 205 127
206 220 228 243 258 270 277 283 290 292 285 278 268 257 215 195 191 184 193 201 160 244 196 208 252 313 271 251 221 315 331 359 4 338 0 31 48 53 33 67 201 243 228 211 184 219 225
209 220 224 235 246 266 270 278 292 292 283 276 285 295 186 174 178 173 170 164 79 76 208 193 189 239 274 234 56 323 307 344 23 48 40 0 60 141 214 184 202 222 240 160 148 179 136
208 211 219 229 238 253 259 276 294 292 289 283 303 232 161 172 166 162 187 166 221 194 304 226 244 257 271 180 93 274 54 50 53 205 78 26 122 234 326 30 41 88 78 359 20 15 87
201 205 215 218 221 249 256 298 290 301 285 311 278 181 154 157 143 141 160 238 234 49 201 299 203 193 244 88 146 193 86 59 231 53 131 143 208 333 90 39 59 42 104 68 140 359 46
198 200 207 211 216 244 259 306 299 305 280 316 299 188 143 146 203 165 243 262 287 126 69 292 347 292 351 109 36 285 99 147 24 138 110 91 354 86 85 69 90 56 159 149 133 87 158
192 197 196 205 210 237 259 286 304 296 270 227 142 185 151 179 245 160 263 317 355 62 72 249 246 212 301 97 159 325 247 41 69 162 94 241 65 66 70 32 80 207 352 49 60 101 86
190 190 190 196 197 230 249 277 309 289 260 84 209 175 147 250 232 241 302 355 55 48 209 203 140 162 77 346 185 174 43 35 71 75 54 91 130 73 278 305 251 290 13 37 50 61 40
183 181 187 188 183 221 218 298 310 281 259 49 237 183 178 203 228 291 8 47 42 118 193 159 169 157 159 154 145 73 69 40 61 74 30 41 3 324 36 34 14 41 54 9 13 14 212
177 179 180 177 179 214 170 12 323 280 73 58 173 145 234 238 286 341 54 49 145 205 202 189 129 113 125 114 5 29 62 41 359 43 115 130 348 358 326 86 239 356 116 147 165 172 267
176 173 168 174 180 195 148 36 348 272 107 154 146 207 289 261 262 68 71 68 208 212 174 139 92 108 105 82 126 84 61 118 30 12 132 133 154 291 23 321 122 312 51 164 105 357 69
172 169 154 177 176 170 121 52 9 181 131 167 124 81 276 241 88 63 74 231 237 303 27 101 145 153 155 193 115 101 121 334 339 19 150 180 106 312 343 27 4 104 173 43 4 95 57
170 154 159 172 169 153 136 74 47 111 140 181 71 77 262 55 62 52 156 238 272 20 77 90 188 181 174 186 136 72 43 9 15 340 49 67 95 287 42 29 346 3 27 60 105 108 149
161 151 161 162 165 142 126 81 70 121 137 113 109 102 297 58 69 7 202 215 302 43 13 36 91 68 102 114 65 79 120 28 335 350 50 32 116 94 161 270 311 147 117 102 109 244 73
150 147 166 157 153 127 133 96 81 127 156 132 124 145 337 86 141 288 284 284 113 99 322 74 58 66 103 117 98 75 88 0 33 54 81 19 13 63 353 351 347 92 105 106 99 80 199
142 145 162 148 137 119 112 102 94 135 172 104 105 88 346 48 196 156 232 264 94 42 31 72 109 61 72 66 37 123 101 35 37 65 340 84 79 145 176 196 189 259 48 134 117 114 188
139 155 156 147 128 117 99 96 95 142 164 99 99 217 175 212 286 202 160 180 125 92 25 70 22 126 141 107 73 103 92 93 19 355 59 81 112 32 67 28 357 257 107 87 192 200 160
148 150 150 139 120 119 90 94 93 136 154 84 139 136 31 181 144 187 159 201 175 190 125 262 149 58 92 122 170 188 136 159 181 85 62 9 141 354 23 11 18 323 309 268 234 211 234
144 148 142 138 132 100 79 76 86 96 194 119 278 355 111 292 102 92 219 170 201 135 12 97 130 93 73 54 104 87 80 95 127 127 98 58 118 71 258 6 353 357 225 226 130 12 225
149 141 137 133 112 89 69 66 63 62 92 159 173 113 89 269 121 184 205 84 108 111 134 110 78 98 160 154 84 38 41 55 60 40 97 122 91 77 203 28 29 247 304 174 109 75 108
147 134 133 120 104 81 56 49 67 55 96 103 193 131 115 134 205 104 76 115 78 52 54 76 11 122 126 62 62 42 351 20 358 36 31 89 112 92 126 190 295 313 173 163 163 211 183
135 127 124 112 96 69 50 29 33 39 36 109 105 121 102 115 268 27 110 144 135 107 25 21 28 80 67 78 74 130 192 199 221 114 54 56 75 108 144 134 217 234 220 130 87 285 186
127 121 114 104 86 64 45 26 26 27 20 96 76 91 92 108 292 87 149 167 121 90 108 67 39 52 58 70 87 153 228 177 175 176 196 43 9 148 143 213 287 239 243 106 101 238 167
117 113 105 95 81 60 40 26 22 20 14 65 196 351 116 108 332 2 26 129 98 111 136 209 55 347 45 71 122 195 171 223 111 193 180 166 146 194 99 89 281 190 105 164 205 145 157
118 114 106 93 76 58 44 29 18 11 9 29 65 339 72 86 167 7 78 33 274 167 130 43 158 162 171 93 151 132 186 147 154 224 136 223 187 181 181 211 238 220 196 181 150 147 174